Regional Weather Roundup
Issued by NWS

Home | Current Version | Previous Version | Text Only | Print | Product List | Glossary On
Versions: 1 2 3 4 5 6 7 8 9 10 11 12 13 14 15 16 17 18 19 20 21 22 23 24 25 26 27 28 29 30 31 32 33 34 35 36 37 38 39 40 41 42 43 44 45 46 47 48 49 50
000
ASUS44 KOUN 040010
RWROK

WEATHER ROUNDUP FOR OKLAHOMA
NATIONAL WEATHER SERVICE NORMAN OK
600 PM CST TUE MAR 03 2015

NOTE: "FAIR" INDICATES FEW OR NO CLOUDS BELOW 12,000 FEET WITH NO
      SIGNIFICANT WEATHER AND/OR OBSTRUCTIONS TO VISIBILITY.

OKZ001>007-009>012-014-015-017-040100-
NORTHWEST OKLAHOMA AND THE PANHANDLE

CITY           SKY/WX    TMP DP  RH WIND       PRES   REMARKS
GAGE           CLOUDY    45  33  63 NE13      29.81F
6HR MIN TEMP:  45; 6HR MAX TEMP:  56; 6HR PCP: TRACE;

GUYMON         CLOUDY    40  31  70 NE17G24   29.83R WCI  31
ENID/WOODRING  LGT RAIN  46  41  81 N9        29.83S
$$

OKZ016-021>023-033>039-044-045-040100-
SOUTHWEST OKLAHOMA

CITY           SKY/WX    TMP DP  RH WIND       PRES   REMARKS
LAWTON/REGL    CLOUDY    57  47  69 CALM      29.82S
6HR MIN TEMP:  48; 6HR MAX TEMP:  59;

LAWTON/FT SILL CLOUDY    56  47  73 E5        29.80F
FREDERICK      CLOUDY    56  47  71 NE6       29.79R
CLINTON        CLOUDY    53  41  63 NE8       29.84R
HOBART         CLOUDY    52  45  77 E8        29.83R
ALTUS AFB      MOCLDY    56  47  73 NE7       29.81R
$$

OKZ018>020-024>031-040100-
CENTRAL OKLAHOMA

CITY           SKY/WX    TMP DP  RH WIND       PRES   REMARKS
OKLAHOMA CITY  CLOUDY    53  42  66 NW7       29.83R
6HR MIN TEMP:  51; 6HR MAX TEMP:  58;

OKC/WILEY POST CLOUDY    54  41  61 NW7       29.84R
OKC/TINKER AFB CLOUDY    53  43  68 N9        29.82S
STILLWATER     CLOUDY    51  39  63 N7        29.85R
GUTHRIE        CLOUDY    53  40  61 N6        29.84R
$$

OKZ008-013-054>072-040100-
NORTHEAST OKLAHOMA

CITY           SKY/WX    TMP DP  RH WIND       PRES   REMARKS
TULSA          CLOUDY    55  46  71 NW3       29.84R
6HR MIN TEMP:  49; 6HR MAX TEMP:  59;

TULSA/JONES    CLOUDY    57  45  64 N5        29.83R
PONCA CITY     LGT RAIN  46  42  86 E6        29.84S
BARTLESVILLE   CLOUDY    49  40  71 CALM      29.86S
MUSKOGEE       CLOUDY    52  46  80 S3        29.86R
$$

OKZ032-040>043-046>053-073>077-040100-
SOUTH CENTRAL/SOUTHEAST OKLAHOMA

CITY           SKY/WX    TMP DP  RH WIND       PRES   REMARKS
ARDMORE/DWNTWN CLOUDY    48  46  93 CALM      29.85R FOG
MCALESTER      CLOUDY    49  47  93 NW6       29.85R
$$




USA.gov is the U.S. government's official web portal to all federal, state and local government web resources and services.